TimeCDT,TemperatureF,Dew PointF,Humidity,Sea Level PressureIn,VisibilityMPH,Wind Direction,Wind SpeedMPH,Gust SpeedMPH,PrecipitationIn,Events,Conditions,WindDirDegrees,DateUTC
12:15 AM,49.3,49.1,99,30.03,10.0,Calm,Calm,-,N/A,,Clear,0,2013-07-25 05:15:00
12:35 AM,49.1,48.7,99,30.03,10.0,Calm,Calm,-,N/A,,Clear,0,2013-07-25 05:35:00
12:55 AM,49.3,48.9,99,30.02,10.0,Calm,Calm,-,N/A,,Clear,0,2013-07-25 05:55:00
1:15 AM,48.4,48.2,99,30.03,3.0,Calm,Calm,-,N/A,,Clear,0,2013-07-25 06:15:00
1:35 AM,48.6,48.0,98,30.03,0.5,Calm,Calm,-,N/A,Fog,Fog,0,2013-07-25 06:35:00
1:55 AM,48.0,47.7,99,30.02,7.0,Calm,Calm,-,N/A,,Mostly Cloudy,0,2013-07-25 06:55:00
2:15 AM,48.0,47.7,99,30.02,3.0,Calm,Calm,-,N/A,,Scattered Clouds,0,2013-07-25 07:15:00
2:35 AM,47.1,46.8,99,30.01,7.0,Calm,Calm,-,N/A,,Clear,0,2013-07-25 07:35:00
2:55 AM,47.1,46.8,99,30.02,5.0,Calm,Calm,-,N/A,,Clear,0,2013-07-25 07:55:00
3:15 AM,46.6,46.2,99,30.01,5.0,Calm,Calm,-,N/A,,Clear,0,2013-07-25 08:15:00
3:35 AM,46.6,46.2,99,30.01,1.5,Calm,Calm,-,N/A,,Mist,0,2013-07-25 08:35:00
3:55 AM,46.2,45.9,99,30.01,2.5,Calm,Calm,-,N/A,,Clear,0,2013-07-25 08:55:00
4:15 AM,46.0,45.7,99,30.00,10.0,Calm,Calm,-,N/A,,Clear,0,2013-07-25 09:15:00
4:35 AM,45.9,45.5,99,30.00,1.8,Calm,Calm,-,N/A,,Mist,0,2013-07-25 09:35:00
4:55 AM,45.5,45.3,99,30.01,10.0,Calm,Calm,-,N/A,,Clear,0,2013-07-25 09:55:00
5:15 AM,45.9,45.7,99,30.00,10.0,Calm,Calm,-,N/A,,Clear,0,2013-07-25 10:15:00
5:35 AM,45.5,45.5,100,30.01,0.8,Calm,Calm,-,N/A,,Overcast,0,2013-07-25 10:35:00
5:55 AM,48.6,48.4,99,30.01,10.0,Calm,Calm,-,N/A,,Mostly Cloudy,0,2013-07-25 10:55:00
6:15 AM,51.4,51.4,100,30.01,10.0,Calm,Calm,-,N/A,,Mostly Cloudy,0,2013-07-25 11:15:00
6:35 AM,52.9,52.9,100,30.01,10.0,Calm,Calm,-,N/A,,Mostly Cloudy,0,2013-07-25 11:35:00
6:55 AM,54.0,53.8,99,30.01,10.0,Calm,Calm,-,N/A,,Scattered Clouds,0,2013-07-25 11:55:00
7:15 AM,55.2,54.1,96,30.01,10.0,South,3.5,-,N/A,,Clear,180,2013-07-25 12:15:00
7:35 AM,57.0,53.8,89,30.01,10.0,South,3.5,-,N/A,,Scattered Clouds,190,2013-07-25 12:35:00
7:55 AM,59.7,55.0,84,30.02,10.0,South,3.5,-,N/A,,Mostly Cloudy,190,2013-07-25 12:55:00
8:15 AM,59.9,55.0,84,30.01,10.0,Calm,Calm,-,N/A,,Overcast,0,2013-07-25 13:15:00
8:35 AM,59.5,55.0,85,30.01,10.0,Calm,Calm,-,N/A,,Overcast,0,2013-07-25 13:35:00
8:55 AM,61.0,55.2,81,30.01,10.0,SSW,3.5,-,N/A,,Overcast,200,2013-07-25 13:55:00
9:15 AM,61.7,55.6,80,30.01,10.0,SSW,3.5,-,N/A,,Overcast,210,2013-07-25 14:15:00
9:35 AM,62.6,56.3,80,30.01,10.0,Calm,Calm,-,N/A,,Overcast,0,2013-07-25 14:35:00
9:55 AM,63.7,55.9,76,30.01,10.0,SSW,5.8,-,N/A,,Overcast,210,2013-07-25 14:55:00
10:15 AM,65.3,56.3,73,30.01,10.0,SSW,5.8,-,N/A,,Overcast,200,2013-07-25 15:15:00
10:35 AM,65.8,57.0,73,30.01,10.0,SSW,5.8,-,N/A,,Overcast,210,2013-07-25 15:35:00
10:55 AM,66.2,57.0,72,30.01,10.0,SSW,5.8,-,N/A,,Overcast,210,2013-07-25 15:55:00
11:15 AM,67.1,57.7,72,30.00,10.0,South,4.6,-,N/A,,Overcast,180,2013-07-25 16:15:00
11:35 AM,69.6,57.9,66,30.00,10.0,South,5.8,-,N/A,,Mostly Cloudy,190,2013-07-25 16:35:00
11:55 AM,70.2,57.6,64,29.99,10.0,SW,6.9,-,N/A,,Mostly Cloudy,230,2013-07-25 16:55:00
12:15 PM,71.4,56.5,59,29.99,10.0,SSW,6.9,-,N/A,,Overcast,210,2013-07-25 17:15:00
12:35 PM,71.8,57.0,60,29.98,10.0,SSW,9.2,-,N/A,,Overcast,200,2013-07-25 17:35:00
12:55 PM,73.0,56.1,55,29.98,10.0,SSW,9.2,16.1,N/A,,Overcast,200,2013-07-25 17:55:00
1:15 PM,73.9,57.6,56,29.97,10.0,SSW,10.4,-,N/A,,Overcast,210,2013-07-25 18:15:00
1:35 PM,73.0,56.3,56,29.97,10.0,SW,5.8,-,N/A,,Overcast,230,2013-07-25 18:35:00
1:55 PM,72.9,57.0,57,29.97,10.0,WSW,8.1,-,N/A,,Mostly Cloudy,240,2013-07-25 18:55:00
2:15 PM,74.7,57.9,56,29.96,10.0,SSW,8.1,-,N/A,,Scattered Clouds,200,2013-07-25 19:15:00
2:35 PM,74.7,57.7,55,29.95,10.0,SW,3.5,-,N/A,,Scattered Clouds,220,2013-07-25 19:35:00
2:55 PM,75.7,57.0,52,29.94,10.0,SW,10.4,16.1,N/A,,Scattered Clouds,230,2013-07-25 19:55:00
3:15 PM,75.7,57.6,53,29.93,10.0,SW,10.4,-,N/A,,Scattered Clouds,220,2013-07-25 20:15:00
3:35 PM,75.0,57.7,55,29.92,10.0,SW,4.6,-,N/A,,Mostly Cloudy,230,2013-07-25 20:35:00
3:55 PM,76.1,58.5,54,29.93,10.0,SW,5.8,-,N/A,,Mostly Cloudy,230,2013-07-25 20:55:00
4:15 PM,73.8,61.3,65,29.91,10.0,SW,3.5,-,N/A,Rain-Thunderstorm,Light Thunderstorms and Rain,220,2013-07-25 21:15:00
4:35 PM,73.4,57.9,58,29.91,10.0,SW,4.6,-,N/A,,Mostly Cloudy,220,2013-07-25 21:35:00
4:55 PM,73.6,57.7,58,29.92,10.0,WSW,6.9,-,N/A,,Mostly Cloudy,250,2013-07-25 21:55:00
5:15 PM,73.4,58.6,60,29.91,10.0,Calm,Calm,-,N/A,,Scattered Clouds,0,2013-07-25 22:15:00
5:35 PM,70.0,61.3,74,29.93,7.0,West,10.4,-,N/A,Rain-Thunderstorm,Heavy Thunderstorms and Rain,280,2013-07-25 22:35:00
5:55 PM,63.0,58.8,86,29.92,2.0,NW,4.6,-,N/A,Rain-Thunderstorm,Heavy Thunderstorms and Rain,320,2013-07-25 22:55:00
6:15 PM,64.0,60.1,87,29.92,10.0,Calm,Calm,-,N/A,Rain,Light Rain,0,2013-07-25 23:15:00
6:35 PM,66.9,61.9,84,29.92,10.0,NNE,3.5,-,N/A,,Scattered Clouds,20,2013-07-25 23:35:00
6:55 PM,66.2,62.1,86,29.92,10.0,Calm,Calm,-,N/A,,Mostly Cloudy,0,2013-07-25 23:55:00
7:15 PM,65.5,62.2,89,29.93,10.0,Calm,Calm,-,N/A,,Mostly Cloudy,0,2013-07-26 00:15:00
7:35 PM,65.1,62.6,92,29.92,10.0,Calm,Calm,-,N/A,,Mostly Cloudy,0,2013-07-26 00:35:00
7:55 PM,64.6,63.0,94,29.93,10.0,ENE,3.5,-,N/A,Rain-Thunderstorm,Light Thunderstorms and Rain,70,2013-07-26 00:55:00
8:15 PM,64.4,63.0,95,29.93,5.0,ESE,4.6,-,N/A,Rain-Thunderstorm,Heavy Thunderstorms and Rain,110,2013-07-26 01:15:00
8:35 PM,63.9,62.6,96,29.91,10.0,SE,3.5,-,N/A,Rain,Light Rain,130,2013-07-26 01:35:00
8:55 PM,61.9,58.3,88,29.94,1.2,NW,9.2,20.7,N/A,Rain-Thunderstorm,Heavy Thunderstorms and Rain,310,2013-07-26 01:55:00
9:15 PM,60.8,58.6,93,29.94,10.0,Calm,Calm,-,N/A,Rain-Thunderstorm,Light Thunderstorms and Rain,0,2013-07-26 02:15:00
9:35 PM,60.1,58.5,94,29.94,10.0,Calm,Calm,-,N/A,Thunderstorm,Overcast,0,2013-07-26 02:35:00
9:55 PM,60.8,59.9,97,29.94,10.0,North,4.6,-,N/A,Thunderstorm,Overcast,360,2013-07-26 02:55:00
10:15 PM,60.8,59.5,96,29.94,7.0,Calm,Calm,-,N/A,Rain,Light Rain,0,2013-07-26 03:15:00
10:35 PM,60.4,59.4,96,29.97,7.0,SW,3.5,-,N/A,Rain-Thunderstorm,Rain,230,2013-07-26 03:35:00
10:55 PM,60.4,59.5,97,29.95,4.0,Calm,Calm,-,N/A,Rain,Heavy Rain,0,2013-07-26 03:55:00
11:15 PM,60.3,59.4,97,29.93,7.0,SE,3.5,-,N/A,Rain-Thunderstorm,Rain,130,2013-07-26 04:15:00
11:35 PM,59.9,59.0,97,29.94,10.0,Calm,Calm,-,N/A,,Mostly Cloudy,0,2013-07-26 04:35:00
11:55 PM,59.9,59.0,97,29.94,10.0,SSW,3.5,-,N/A,,Mostly Cloudy,200,2013-07-26 04:55:00